Wetterdaten: aktuell Dienstag, 11.05.2021 22:05
Datum Zeit Wetterhtte Helligkeit Boden -10cm Boden 5cm Temp S Luftfeuchte Luftdruck Regen Wind Richtung Richtung Sonnenschein UV Taupunkt Windchill Windben
11.05.2021 22:05 15,9 C -22,0 C 19,5 C 15,1 C 14,3 C 87 % 1006,0 hPa 0,0 l/m 0,3 km/h N 4 0 min 0,0 UV-I 13,7 C 15,9 C 7,4 km/h
11.05.2021 22:00 15,9 C -22,0 C 19,5 C 15,2 C 14,3 C 87 % 1006,1 hPa 0,0 l/m 0,0 km/h O-NO 71 0 min 0,0 UV-I 13,7 C 15,9 C 0,0 km/h
11.05.2021 21:55 15,9 C -22,0 C 19,5 C 15,2 C 14,1 C 87 % 1006,1 hPa 0,0 l/m 1,5 km/h N-NO 26 0 min 0,0 UV-I 13,7 C 15,9 C 0,0 km/h
11.05.2021 21:50 15,9 C -22,0 C 19,5 C 15,3 C 14,1 C 87 % 1006,1 hPa 0,0 l/m 3,0 km/h NW 319 0 min 0,0 UV-I 13,7 C 15,9 C 0,0 km/h
11.05.2021 21:45 16,0 C -22,0 C 19,6 C 15,2 C 14,2 C 87 % 1006,1 hPa 0,0 l/m 2,1 km/h NW 319 0 min 0,0 UV-I 13,8 C 16,0 C 6,6 km/h
11.05.2021 21:40 16,1 C -22,0 C 19,6 C 15,3 C 14,2 C 87 % 1006,4 hPa 0,0 l/m 1,8 km/h N-NW 341 0 min 0,0 UV-I 13,9 C 16,1 C 2,9 km/h
11.05.2021 21:35 16,1 C -22,0 C 19,6 C 15,2 C 14,2 C 87 % 1006,4 hPa 0,0 l/m 2,7 km/h N-NW 341 0 min 0,0 UV-I 13,9 C 16,1 C 2,9 km/h
11.05.2021 21:30 16,1 C -22,0 C 19,7 C 15,3 C 14,2 C 87 % 1006,4 hPa 0,0 l/m 2,4 km/h N-NO 26 0 min 0,0 UV-I 13,9 C 16,1 C 7,2 km/h
11.05.2021 21:25 16,0 C -22,0 C 19,7 C 15,3 C 14,1 C 86 % 1006,4 hPa 0,0 l/m 2,1 km/h S-SW 206 0 min 0,0 UV-I 13,7 C 16,0 C 0,0 km/h
11.05.2021 21:20 16,1 C -22,0 C 19,7 C 15,4 C 14,2 C 86 % 1006,1 hPa 0,0 l/m 2,1 km/h O-NO 71 0 min 0,0 UV-I 13,8 C 16,1 C 3,5 km/h
11.05.2021 21:15 16,2 C -22,0 C 19,8 C 15,4 C 14,3 C 86 % 1006,1 hPa 0,0 l/m 1,2 km/h N-NW 341 0 min 0,0 UV-I 13,9 C 16,2 C 5,8 km/h
11.05.2021 21:10 16,3 C -22,0 C 19,8 C 15,4 C 14,5 C 86 % 1006,1 hPa 0,0 l/m 2,4 km/h O-NO 71 0 min 0,0 UV-I 14,0 C 16,3 C 0,0 km/h
11.05.2021 21:05 16,3 C -22,1 C 19,9 C 15,5 C 14,4 C 86 % 1006,1 hPa 0,1 l/m 2,7 km/h O-SO 116 0 min 0,0 UV-I 14,0 C 16,3 C 4,0 km/h
11.05.2021 21:00 16,4 C -22,1 C 19,9 C 15,6 C 14,6 C 86 % 1005,5 hPa 0,0 l/m 2,1 km/h O-NO 71 0 min 0,0 UV-I 14,1 C 16,4 C 0,0 km/h
11.05.2021 20:55 16,4 C -22,1 C 19,9 C 15,7 C 14,6 C 86 % 1005,5 hPa 0,1 l/m 3,0 km/h W 274 0 min 0,0 UV-I 14,1 C 16,4 C 6,4 km/h
11.05.2021 20:50 16,6 C -21,8 C 20,0 C 15,7 C 14,9 C 86 % 1005,5 hPa 0,1 l/m 2,4 km/h N 4 0 min 0,0 UV-I 14,2 C 16,6 C 6,1 km/h
11.05.2021 20:45 16,7 C -21,8 C 20,0 C 15,8 C 15,0 C 85 % 1005,5 hPa 0,3 l/m 1,8 km/h NO 49 0 min 0,0 UV-I 14,2 C 16,7 C 5,6 km/h
11.05.2021 20:40 16,7 C -21,5 C 19,9 C 15,9 C 15,2 C 85 % 1005,9 hPa 0,1 l/m 1,5 km/h N 4 0 min 0,0 UV-I 14,2 C 16,7 C 0,0 km/h
11.05.2021 20:35 16,8 C -21,5 C 19,8 C 15,9 C 15,3 C 85 % 1005,9 hPa 0,0 l/m 1,8 km/h W-NW 296 0 min 0,0 UV-I 14,3 C 16,8 C 6,6 km/h
11.05.2021 20:30 16,8 C -21,5 C 19,8 C 15,8 C 15,3 C 85 % 1005,9 hPa 0,0 l/m 0,3 km/h S 184 0 min 0,0 UV-I 14,3 C 16,8 C 0,0 km/h
11.05.2021 20:25 16,9 C -21,3 C 19,9 C 15,8 C 15,3 C 85 % 1005,9 hPa 0,0 l/m 0,3 km/h SO 139 0 min 0,0 UV-I 14,4 C 16,9 C 3,7 km/h
11.05.2021 20:20 16,8 C -21,3 C 19,9 C 15,9 C 15,4 C 85 % 1005,3 hPa 0,0 l/m 0,0 km/h SW 229 0 min 0,0 UV-I 14,3 C 16,8 C 0,0 km/h
11.05.2021 20:15 16,9 C -21,3 C 19,9 C 15,9 C 15,4 C 84 % 1005,3 hPa 0,0 l/m 0,0 km/h N 4 0 min 0,0 UV-I 14,2 C 16,9 C 0,0 km/h
11.05.2021 20:10 16,9 C -21,3 C 19,9 C 16,1 C 15,4 C 84 % 1005,3 hPa 0,0 l/m 0,3 km/h N-NO 26 0 min 0,0 UV-I 14,2 C 16,9 C 0,0 km/h
11.05.2021 20:05 16,9 C -21,0 C 19,9 C 16,0 C 15,4 C 84 % 1005,3 hPa 0,0 l/m 0,6 km/h S 184 0 min 0,0 UV-I 14,2 C 16,9 C 0,0 km/h
11.05.2021 20:00 17,1 C -21,0 C 19,9 C 16,1 C 15,3 C 83 % 1005,2 hPa 0,0 l/m 0,9 km/h O 94 0 min 0,0 UV-I 14,2 C 17,1 C 3,2 km/h
11.05.2021 19:55 17,0 C -20,8 C 19,9 C 16,1 C 15,3 C 83 % 1005,2 hPa 0,0 l/m 0,9 km/h N-NO 26 0 min 0,0 UV-I 14,1 C 17,0 C 0,0 km/h
11.05.2021 19:50 17,1 C -20,6 C 20,0 C 16,1 C 15,3 C 83 % 1005,2 hPa 0,0 l/m 2,7 km/h NW 319 0 min 0,0 UV-I 14,2 C 17,1 C 0,0 km/h
11.05.2021 19:45 17,1 C -20,0 C 20,0 C 16,1 C 15,3 C 83 % 1005,2 hPa 0,0 l/m 4,5 km/h SW 229 0 min 0,0 UV-I 14,2 C 17,1 C 3,5 km/h
11.05.2021 19:40 17,1 C -19,0 C 20,0 C 16,2 C 15,3 C 83 % 1004,4 hPa 0,0 l/m 4,8 km/h SO 139 0 min 0,0 UV-I 14,2 C 17,1 C 8,5 km/h
11.05.2021 19:35 17,3 C -16,2 C 20,0 C 16,2 C 15,3 C 82 % 1004,4 hPa 0,0 l/m 3,3 km/h SO 139 0 min 0,0 UV-I 14,2 C 17,3 C 4,8 km/h
11.05.2021 19:30 17,3 C -13,7 C 20,0 C 16,3 C 15,3 C 83 % 1004,4 hPa 0,0 l/m 4,5 km/h O-NO 71 0 min 0,0 UV-I 14,4 C 17,3 C 8,0 km/h
11.05.2021 19:25 17,5 C -12,1 C 20,1 C 16,4 C 15,4 C 83 % 1004,4 hPa 0,0 l/m 6,8 km/h NW 319 0 min 0,0 UV-I 14,6 C 17,3 C 2,7 km/h
11.05.2021 19:20 17,5 C -10,0 C 20,1 C 16,4 C 15,2 C 83 % 1004,4 hPa 0,0 l/m 6,3 km/h O-NO 71 0 min 0,0 UV-I 14,6 C 17,5 C 6,6 km/h
11.05.2021 19:15 17,7 C -8,0 C 20,2 C 16,4 C 15,4 C 83 % 1004,4 hPa 0,0 l/m 2,7 km/h W-SW 251 0 min 0,1 UV-I 14,8 C 17,7 C 4,0 km/h
11.05.2021 19:10 17,6 C -3,9 C 20,2 C 16,5 C 15,4 C 82 % 1004,4 hPa 0,0 l/m 1,5 km/h SO 139 0 min 0,1 UV-I 14,5 C 17,6 C 3,5 km/h
11.05.2021 19:05 17,7 C -3,8 C 20,2 C 16,6 C 15,6 C 81 % 1004,4 hPa 0,0 l/m 2,4 km/h S-SO 161 0 min 0,1 UV-I 14,4 C 17,7 C 2,9 km/h
11.05.2021 19:00 17,7 C -3,2 C 20,3 C 16,6 C 15,8 C 81 % 1004,4 hPa 0,1 l/m 6,3 km/h W-SW 251 0 min 0,1 UV-I 14,4 C 17,7 C 0,0 km/h
11.05.2021 18:55 17,9 C -3,3 C 20,2 C 16,7 C 15,9 C 81 % 1004,4 hPa 0,1 l/m 7,1 km/h N 4 0 min 0,0 UV-I 14,6 C 17,6 C 10,4 km/h
11.05.2021 18:50 18,1 C -4,3 C 20,2 C 16,7 C 16,3 C 80 % 1004,4 hPa 0,2 l/m 7,1 km/h W 274 0 min 0,0 UV-I 14,6 C 17,8 C 16,2 km/h
11.05.2021 18:45 18,3 C -10,1 C 20,2 C 16,9 C 16,3 C 79 % 1004,4 hPa 0,0 l/m 5,7 km/h NO 49 0 min 0,0 UV-I 14,6 C 18,3 C 0,0 km/h
_ Min-Zeit 06:40 04:12 07:10 06:40 06:35 14:10 13:40 - 22:00 - - - 22:05 06:30 06:40 22:00
Minimum _ 13,6 C -22,3 C 17,0 C 13,2 C 12,2 C 57 % 1003,7 hPa - 0,0 km/h - - - 0,0 UV-I 10,4 C 13,6 C 0,0 km/h
_ Max-Zeit 15:20 09:10 17:05 15:15 13:00 22:05 01:17 20:45 16:15 - - 16:20 13:00 15:20 14:15 15:40
Maximum _ 24,3 C 47,0 C 20,4 C 19,5 C 35,5 C 87 % 1007,4 hPa 0,3 l/m 19,9 km/h
N-NW
- - 5 min 5,5 UV-I 15,8 C 23,9 C 34,3 km/h
NW
Durchschnitt _ 18,2 C 2,5 C 18,8 C 15,9 C 20,5 C 73 % 1005,3 hPa #1,9 l/m 4,9 km/h N-NO - #6:35 h 2,7 UV-I 13,1 C 17,8 C 5,8 km/h